ARIANE 5 R/B, 43634

Orbit data source: Space-Track

ARIANE 5 R/B, 43634 is space debris in HEO originally from a launch on Tue, 25 Sep 2018 UTC launched from the French Guiana (FRGUI). Debris objects in space refer to the collection of defunct objects orbiting the Earth. Examples of debris include non-operational satellites, rocket bodies, and fragments generated from explosions, collisions, or faulty payload assembly.

Loading next visibility...
Identifier
43634, 2018-074C
Orbit
HEO
Last TLE update
21 hours ago
Origin
Manufacturer
ArianeGroup
Mission
Spacecraft
Bus & Motor
ESC-A, Unknown motor
Mass
~5,000 kg wet, ~5,000 kg dry
Launch date (UTC)
2018-09-25 (7 years ago)
Launch vehicle
Unknown
Launch site
French Guiana (FRGUI)
Object type
Payload
Rocket body
Debris
Shape & HBR
Cyl + 1 Nozzle, 7 m
Radar Cross Section
41.627 m², Large (>1 m²)

Expand to show TLE details & history

TLE from 21 hours ago
0 ARIANE 5 R/B
1 43634U 18074C   25183.26805530  .00005242  00000-0  10401-2 0  9999
2 43634   5.6322 198.2666 7171866 102.2160 339.6144  2.42666008 57776
Epoch: 2025-07-02T06:25Z
TLE epoch observation values (Epoch: 2025-07-02T06:25:59.977Z)
Latitude
-0.00011°
Longitude
-178.67679°
Altitude
6,960.51 km
Speed
6.536 km/s
True Right ascension
13h 13m 29s
True Declination
0° 00' 00"
Sunlit
Object was in daylight at epoch
Visualization orbit readout
Latitude
-0.79256°
Longitude
8.96125°
Altitude
4,321.736 km
Speed
7.58 km/s
Apparent Right ascension
02h 06m 03s
Apparent Declination
-15° 16' 51"
Sunlit
Object is in daylight
Visualization observer readout
Local Sidereal Time
14:54:24
Azimuth
26.613° NE
Elevation
-63.199°
Doppler factor
1
Orbital elements
Apogee altitude
33,799.288 km
Perigee altitude
238.916 km
Semi-major axis
23,397.239 km
Eccentricity
0.71719
Inclination
5.6322°
RAAN
198.2666°
Arg. of periapsis
102.216°
True anomaly
Unknown
Mean anomaly
339.6144°
Eccentric anomaly
Unknown
Mean motion
0.60645 °/min
Orbital period
593.62 mins
BSTAR
0.0010401
Loading maneuver chart data...
Loading SW <> Apogee altitude chart data...
Loading historical data...
Loading historical data...
Loading historical data...
Loading historical data...
Loading historical data...
Loading historical data...
Loading historical data...
Other satellites on launch #74 in the year 2018 (2018-09-25 UTC)

ARIANE 5 R/B Visibility forecast

Observer location: undefined°, undefined°

Span
Click to sort rows by Start time (UTC) header in descending order
Start Az.
Max El. time (UTC)
Max El. Az.
Max El.
End time (UTC)
End Az.
528 mins2025-07-03 13:00:15.911Z165.66° S2025-07-03 20:01:15.911Z143.671° SSE26.032°2025-07-03 21:48:15.911Z125.376° SE
|